This demonstration page uses our WeatherBlox Daily Observations layout. Learn more.

Left ArrowRight Arrow

39.92423, -83.80882

Hourly Observations for June 9, 2022

Temp ( °F °C ) Dew Point ( °F °C ) Humidity (%) Winds ( mph kmh ) Pressure ( in mb ) Visibility ( mi km ) Precip ( " mm )
12:56 am 00:56 Cloudy 63 17 N/A N/A WNW 13 20 29.79 1009 10 16 0.00 0.00
1:56 am 01:56 Cloudy 61 16 N/A N/A WNW 13 20 29.80 1009 10 16 0.04 1.02
2:20 am 02:20 Cloudy 61 16 N/A N/A WNW 13 20 29.81 1009 10 16 0.00 0.00
2:56 am 02:56 Cloudy 61 16 N/A N/A WNW 8 13 29.82 1010 10 16 0.00 0.00
3:56 am 03:56 Cloudy 61 16 N/A N/A WNW 9 15 29.83 1010 10 16 0.00 0.00
4:56 am 04:56 Cloudy 59 15 N/A N/A WNW 12 19 29.85 1011 10 16 0.00 0.00
5:31 am 05:31 Cloudy 59 15 N/A N/A NW 8 13 29.86 1011 10 16 0.00 0.00
5:56 am 05:56 Mostly Cloudy 57 14 N/A N/A WNW 8 13 29.87 1012 8 13 0.00 0.00
6:09 am 06:09 Partly Cloudy 57 14 N/A N/A WNW 8 13 29.88 1012 7 11 0.00 0.00
6:56 am 06:56 Hazy 57 14 N/A N/A WNW 6 9 29.89 1012 6 10 0.00 0.00
7:14 am 07:14 Mostly Cloudy 59 15 N/A N/A WNW 8 13 29.89 1012 7 11 0.00 0.00
7:46 am 07:46 Partly Cloudy 61 16 N/A N/A WNW 13 20 29.90 1012 9 14 0.00 0.00
7:56 am 07:56 Sunny 61 16.1 61 16.1 100 100 NW 9 15 29.91 1013 10 16 0.00 0.00
8:25 am 08:25 Mostly Cloudy 63 17 61 16 94 94 WNW 15 24 29.91 1013 10 16 0.00 0.00
8:56 am 08:56 Cloudy 61 16.1 60 15.6 97 97 NW 14 22 29.93 1014 10 16 0.00 0.00
9:04 am 09:04 Cloudy 61 16 59 15 94 94 NW 14 22 29.93 1013 10 16 0.00 0.00
9:14 am 09:14 Cloudy 61 16 61 16 100 100 NW 8 13 29.93 1013 10 16 0.00 0.00
9:23 am 09:23 Cloudy 61 16 61 16 100 100 NNW 13 20 29.94 1014 10 16 0.00 0.00
9:33 am 09:33 Cloudy 61 16 61 16 100 100 NNW 9 15 29.94 1014 10 16 0.00 0.00
9:44 am 09:44 Cloudy 61 16 61 16 100 100 NW 10 17 29.94 1014 10 16 0.00 0.00
9:53 am 09:53 Cloudy 63 17 59 15 88 88 NW 10 17 29.94 1014 10 16 0.00 0.00
9:56 am 09:56 Cloudy 62 16.7 59 15 90 90 NW 12 19 29.95 1014 10 16 0.00 0.00
10:29 am 10:29 Cloudy 63 17 57 14 83 83 WNW 8 13 29.94 1014 10 16 0.00 0.00
10:56 am 10:56 Cloudy 64 17.8 57 13.9 78 78 NNW 12 19 29.96 1015 10 16 0.00 0.00
11:56 am 11:56 Cloudy 66 18.9 57 13.9 73 73 WNW 12 19 29.97 1015 10 16 0.00 0.00
12:03 pm 12:03 Mostly Cloudy 64 18 55 13 73 73 NNW 12 19 29.96 1015 10 16 0.00 0.00
12:30 pm 12:30 Mostly Cloudy 68 20 59 15 73 73 NNW 9 15 29.95 1014 10 16 0.00 0.00
12:56 pm 12:56 Partly Cloudy 69 20.6 57 13.9 66 66 NW 12 19 29.97 1015 10 16 0.00 0.00
1:56 pm 13:56 Partly Cloudy 70 21.1 57 13.9 64 64 WNW 16 26 29.97 1015 10 16 0.00 0.00
2:56 pm 14:56 Mostly Cloudy 71 21.7 57 13.9 61 61 WNW 15 24 29.97 1015 10 16 0.00 0.00
3:56 pm 15:56 Mostly Sunny 72 22.2 56 13.3 57 57 NW 13 20 29.96 1015 10 16 0.00 0.00
4:56 pm 16:56 Sunny 71 21.7 55 12.8 57 57 WNW 13 20 29.96 1014 10 16 0.00 0.00
5:56 pm 17:56 Sunny 72 22.2 56 13.3 57 57 NW 10 17 29.95 1014 10 16 0.00 0.00
6:56 pm 18:56 Mostly Sunny 71 21.7 54 12.2 55 55 WNW 8 13 29.94 1014 10 16 0.00 0.00
7:56 pm 19:56 Sunny 70 21.1 53 11.7 55 55 WNW 8 13 29.95 1014 10 16 0.00 0.00
8:56 pm 20:56 Sunny 67 19.4 54 12.2 63 63 W 3 6 29.95 1014 10 16 0.00 0.00
9:37 pm 21:37 Mostly Clear 63 17 57 14 83 83 SSW 3 6 29.93 1014 10 16 0.00 0.00
9:56 pm 21:56 Clear 61 16.1 61 16.1 100 100 Calm 29.95 1014 10 16 0.00 0.00
10:56 pm 22:56 Mostly Clear 61 16.1 59 15 93 93 Calm 29.96 1015 10 16 0.00 0.00
11:56 pm 23:56 Clear 60 15.6 57 13.9 90 90 WSW 6 9 29.97 1015 10 16 0.02 0.51

Powered by AerisWeather